Probability
48 48 47 46 43 38 33 30 25 23 27 31 34 35 35 34 32 32 32 32 33 35 44 56 63 68 72 73 71 66 59 54 52 45 34 24 18 16 15 12 8 5 4
37 37 34 30 27 24 21 19 17 17 20 23 25 26 24 21 19 19 19 19 20 22 29 39 48 56 62 64 64 62 55 50 49 46 35 22 14 10 9 8 6 5 4
22 21 17 14 11 10 9 9 10 11 12 14 17 17 13 9 7 6 6 6 7 8 12 19 28 37 46 52 55 54 48 42 39 38 30 18 9 5 3 2 2 3 3
11 10 9 7 5 4 4 5 6 7 8 10 13 12 8 4 2 1 1 1 1 2 4 8 13 20 28 36 41 44 41 37 33 29 23 14 7 4 1 1 0 1 2
4 4 4 2 1 0 1 2 4 4 5 8 9 6 3 1 0 0 0 0 0 0 1 3 5 9 13 17 25 33 37 38 36 32 25 16 9 6 4 2 1 1 1
1 1 1 1 0 0 1 2 3 3 4 5 5 2 1 0 0 0 0 0 0 0 0 1 1 3 4 6 12 23 33 38 39 35 28 20 13 9 6 4 3 1 1
0 0 0 0 0 0 0 2 3 3 2 2 1 0 0 0 0 0 0 0 0 0 0 0 0 1 1 3 7 15 24 31 33 32 25 17 12 8 5 4 2 1 0
0 0 0 0 0 0 1 2 3 2 1 0 0 0 0 0 0 0 0 0 0 0 0 0 0 0 1 2 5 9 14 20 24 24 19 13 8 5 2 1 1 0 0
0 0 0 0 0 0 1 3 3 2 1 0 0 0 0 0 0 0 0 0 0 0 0 0 0 0 1 2 3 5 7 10 13 15 13 10 7 4 1 0 0 0 0
0 0 0 0 0 0 0 1 2 2 1 0 0 0 0 0 0 0 0 0 0 0 0 0 0 0 0 1 1 3 4 4 6 7 7 6 5 3 1 0 0 0 0
0 0 0 0 0 0 0 0 1 1 0 0 0 0 0 0 0 0 0 0 0 0 0 0 0 0 0 0 0 1 1 2 2 2 2 2 3 3 1 0 0 0 0
0 0 0 0 0 0 0 0 0 0 0 0 0 0 0 0 0 0 0 0 0 0 0 0 0 0 0 0 0 0 0 0 0 0 0 1 2 2 1 0 0 0 0
0 0 0 0 0 0 0 0 0 0 0 0 0 0 0 0 0 0 0 0 0 0 0 0 0 0 0 0 0 0 0 0 0 0 0 0 1 1 0 0 0 0 0
0 0 0 0 0 0 0 0 0 0 0 0 0 0 0 0 0 0 0 0 0 0 0 0 0 0 0 0 0 0 0 0 0 0 0 0 0 0 0 0 0 0 0
0 0 0 0 0 0 0 0 0 0 0 0 0 0 0 0 0 0 0 0 0 0 0 0 0 0 0 0 0 0 0 0 0 0 0 0 0 0 0 0 0 0 0
0 0 0 0 0 0 0 0 0 0 0 0 0 0 0 0 0 0 0 0 0 0 0 0 0 0 0 0 0 0 0 0 0 0 0 0 0 0 0 0 0 0 0
0 0 0 0 0 0 0 0 0 0 0 0 0 0 0 0 0 0 0 0 0 0 0 0 0 0 0 0 0 0 0 0 0 0 0 0 0 0 0 0 0 0 0
0 0 0 0 0 0 0 0 0 0 0 0 0 0 0 0 0 0 0 0 0 0 0 0 0 0 0 0 0 0 0 0 0 0 0 0 0 0 0 0 0 0 0
0 0 0 0 0 0 0 0 0 0 0 0 0 0 0 0 0 0 0 0 0 0 0 0 0 0 0 0 0 0 0 0 0 0 0 0 0 0 0 0 0 0 0
0 0 0 0 0 0 0 0 0 0 0 0 0 0 0 0 0 0 0 0 0 0 0 0 0 0 0 0 0 0 0 0 0 0 0 0 0 0 0 0 0 0 0
0 0 0 0 0 0 0 0 0 0 0 0 0 0 0 0 0 0 0 0 0 0 0 0 0 0 0 0 0 0 0 0 0 0 0 0 0 0 0 0 0 0 0
0 0 0 0 0 0 0 0 0 0 0 0 0 0 0 0 0 0 0 0 0 0 0 0 0 0 0 0 0 0 0 0 0 0 0 0 0 0 0 0 0 0 0
0 0 0 0 0 0 0 0 0 0 0 0 0 0 0 0 0 0 0 0 0 0 0 0 0 0 0 0 0 0 0 0 0 0 0 0 0 0 0 0 0 0 0
0 0 0 0 0 0 0 0 0 0 0 0 0 0 0 0 0 0 0 0 0 0 0 0 0 0 0 0 0 0 0 0 0 0 0 0 0 0 0 0 0 0 0
0 0 0 0 0 0 0 0 0 0 0 0 0 0 0 0 0 0 0 0 0 0 0 0 0 0 0 0 0 0 0 0 0 0 0 0 0 0 0 0 0 0 0
0 0 0 0 0 0 0 0 0 0 0 0 0 0 0 0 0 0 0 0 0 0 0 0 0 0 0 0 0 0 0 0 0 0 0 0 0 0 0 0 0 0 0
Wind_Speed
4 4 6 7 7 6 7 7 6 5 3 2 2 2 3 2 2 2 3 3 4 4 5 5 6 6 6 8 8 7 7 7 5 4 5 5 7 9 8 7 7 8 8
4 3 4 5 6 6 6 5 5 4 4 2 2 1 1 1 2 2 3 4 4 4 4 4 5 5 5 7 7 6 4 5 6 5 3 3 3 4 6 5 6 7 5
6 5 4 4 4 5 6 5 5 4 3 2 1 1 2 2 2 3 3 4 5 6 5 5 5 5 5 6 7 7 8 7 6 6 5 4 5 2 2 4 4 4 4
5 5 5 5 5 5 4 3 3 2 2 1 1 1 1 2 3 2 3 5 6 6 6 6 6 6 5 6 6 6 7 7 6 5 6 5 3 3 2 2 2 4 4
7 7 7 6 5 3 3 3 2 2 2 2 2 2 2 2 2 3 5 5 5 6 7 7 6 6 5 6 7 6 7 6 6 5 4 5 4 5 4 3 2 2 2
7 7 5 3 3 2 3 3 4 3 2 2 2 2 3 3 3 4 4 5 4 5 6 7 7 7 6 7 7 7 8 7 8 6 5 5 4 5 5 6 3 2 2
6 6 5 4 4 5 5 4 4 4 3 3 3 3 3 3 3 4 4 5 5 5 7 7 7 7 7 8 7 7 8 8 8 8 6 6 5 4 4 4 3 3 1
4 5 4 4 4 5 5 4 4 4 3 3 3 2 2 2 2 3 3 4 4 6 7 8 8 9 9 8 7 7 7 7 8 8 8 5 6 5 4 4 4 3 2
6 5 5 3 3 3 2 2 3 3 3 4 3 3 3 3 3 3 3 4 4 5 7 8 9 9 8 8 7 6 7 6 6 7 7 5 5 5 5 4 4 4 3
10 9 8 8 7 5 5 4 3 3 4 4 4 3 4 4 3 3 4 4 5 6 7 8 8 8 8 8 7 6 6 6 5 5 6 6 4 4 4 4 3 3 3
10 10 9 9 9 9 8 7 6 6 5 5 5 5 5 4 3 3 4 4 4 5 6 7 8 8 8 7 5 5 5 5 4 4 6 6 5 4 4 4 3 2 3
9 10 10 10 11 11 10 9 8 7 7 6 6 7 6 5 4 4 4 4 4 5 5 6 7 7 7 7 5 4 2 2 2 3 4 5 4 5 4 4 4 4 4
10 10 11 11 11 10 9 9 8 8 8 7 7 7 7 6 6 5 4 4 3 4 4 5 6 7 6 6 5 5 4 4 3 3 4 5 6 6 5 6 6 5 6
9 9 9 9 8 8 8 9 9 9 9 9 8 8 8 8 7 6 5 4 3 3 3 4 5 5 5 5 5 6 6 7 7 6 6 6 6 7 8 7 7 8 8
10 10 9 8 9 9 9 9 9 9 9 9 9 9 8 7 6 6 6 5 4 3 2 2 3 4 3 4 4 5 6 6 7 8 7 7 9 10 8 8 8 9 8
11 11 10 10 10 10 10 10 10 10 9 9 10 9 8 6 7 7 6 6 5 3 2 1 1 2 2 3 5 4 5 6 7 8 8 9 11 15 15 14 12 10 9
13 13 12 11 10 10 10 9 9 9 9 9 9 9 8 7 7 7 7 7 6 5 4 2 2 1 0 2 4 6 5 5 5 6 7 8 9 10 11 14 16 14 12
12 13 12 12 11 11 10 9 9 9 9 8 9 8 8 8 7 6 8 9 6 6 5 4 4 3 2 4 5 6 6 6 6 6 7 8 7 7 10 11 10 9 8
12 12 12 12 11 13 12 10 10 10 9 9 9 8 8 9 8 7 8 8 7 7 6 5 6 5 4 6 9 8 5 6 6 5 5 7 8 9 12 11 10 9 7
12 12 11 11 12 13 10 9 11 11 11 11 9 8 8 8 9 8 8 7 8 9 8 7 7 7 6 9 11 10 6 6 5 5 5 7 8 9 10 9 10 9 6
15 14 12 11 11 12 9 10 11 12 13 11 10 9 8 8 8 7 7 7 9 10 9 9 8 7 8 10 13 11 6 7 6 5 4 4 9 10 9 8 7 9 8
14 14 12 12 12 11 10 11 12 13 11 10 10 10 9 8 8 7 7 7 8 11 11 10 8 6 7 10 12 13 10 9 7 6 4 5 10 11 11 9 11 12 9
14 12 12 13 12 11 9 12 13 12 11 10 11 11 10 8 7 6 7 6 7 8 10 11 10 8 6 7 12 13 13 12 6 6 8 10 12 11 9 11 12 9 7
14 13 13 13 13 12 11 12 12 11 10 11 11 10 9 9 8 6 5 5 6 7 10 12 11 10 8 7 8 8 8 9 8 7 9 11 11 9 9 8 6 5 5
13 12 13 14 15 14 13 13 12 10 10 11 10 10 9 9 8 7 6 7 7 8 10 12 13 13 12 12 15 12 10 9 9 10 6 5 5 5 5 5 5 5 5
14 14 15 15 15 14 14 13 12 11 10 10 9 8 7 7 7 7 8 9 10 12 15 15 15 14 15 18 18 17 17 17 18 11 7 6 7 7 7 6 5 4 4
Wind_Direction
100 106 117 127 132 146 156 167 177 189 174 181 210 232 249 257 265 269 279 287 283 279 268 258 250 240 236 233 223 217 220 223 212 230 255 254 244 245 245 248 252 255 259
115 130 146 153 156 161 169 171 182 184 187 189 198 215 255 282 280 300 314 314 314 306 292 271 263 254 249 245 232 223 221 226 200 205 222 260 269 247 244 244 245 250 255
161 175 179 181 170 178 182 182 187 189 198 193 99 29 10 346 331 324 316 316 316 310 299 288 277 266 252 250 245 230 224 230 219 203 200 213 233 255 265 247 244 245 251
192 196 199 204 204 206 195 190 187 191 200 171 164 181 228 271 272 290 296 305 307 306 302 294 284 275 266 262 257 241 231 229 231 217 216 218 194 203 253 264 250 249 256
212 214 216 216 219 215 201 199 188 201 205 191 190 201 241 254 284 298 301 305 306 305 305 299 290 281 273 267 261 252 236 229 229 216 202 213 216 216 219 247 257 270 265
228 234 239 233 227 212 198 192 192 213 218 210 203 207 236 264 292 303 307 309 306 305 308 307 298 288 278 271 263 253 242 233 230 223 206 192 190 197 206 223 230 245 264
243 249 252 240 227 211 203 196 195 219 225 218 222 224 230 242 265 288 299 308 311 310 311 312 304 295 285 278 268 257 248 237 230 224 218 210 206 180 181 197 206 219 237
290 284 274 252 236 225 210 199 203 222 227 227 234 227 223 232 254 270 283 293 297 298 302 307 302 296 291 285 275 264 252 239 231 225 217 211 211 196 184 178 172 184 196
354 348 341 328 312 295 269 232 230 243 243 237 234 233 235 238 252 268 275 285 292 300 307 309 306 302 296 288 280 264 256 243 233 224 215 210 208 201 196 184 176 170 172
21 20 21 21 18 13 6 2 334 297 285 270 254 246 241 244 250 262 281 293 301 306 314 317 315 310 305 298 283 270 257 245 235 221 214 211 205 197 190 188 187 178 154
26 24 24 23 24 23 20 11 356 339 321 299 278 264 253 245 249 260 275 289 299 310 319 323 323 322 320 314 299 279 260 244 234 218 208 206 190 180 175 166 156 147 131
28 26 23 22 22 17 9 3 354 341 324 308 287 268 258 248 247 256 267 280 296 310 319 326 331 336 338 337 333 321 300 242 217 196 178 169 157 146 138 134 129 125 118
22 21 21 18 12 5 359 354 349 337 327 319 301 280 262 249 245 248 257 268 285 310 327 337 342 345 350 359 8 22 41 57 70 96 122 126 125 116 110 109 109 108 106
15 12 9 3 356 351 346 345 342 338 332 326 313 293 271 252 244 240 243 251 262 289 321 338 342 349 2 14 25 43 56 61 61 61 72 87 101 109 112 107 109 110 105
3 359 353 345 341 341 338 337 333 334 333 328 321 305 290 265 247 238 235 238 245 256 287 329 344 352 6 26 36 54 66 69 68 62 62 74 93 97 102 112 113 112 109
346 341 336 332 331 329 326 325 323 324 327 327 323 317 308 283 256 243 233 229 233 238 244 268 326 360 18 42 57 71 77 79 79 78 73 78 84 89 89 93 95 104 112
329 325 320 316 311 308 307 305 303 307 314 318 321 324 316 299 276 254 236 228 223 216 214 211 192 162 98 94 85 76 78 77 80 87 89 91 92 95 97 88 82 79 84
309 307 304 302 299 295 291 289 292 295 299 305 311 317 318 306 291 265 244 233 219 209 206 199 188 172 172 151 129 102 85 78 70 75 94 105 100 105 108 101 91 81 73
291 291 289 288 287 286 286 287 288 287 290 291 295 303 311 311 299 277 258 237 218 211 203 193 183 175 174 165 147 126 105 92 77 72 89 109 107 115 114 108 103 92 80
297 293 290 287 284 282 280 277 280 282 280 280 281 286 292 301 302 287 272 246 219 213 202 192 187 179 174 169 154 138 127 114 103 85 79 98 116 121 121 121 120 115 110
297 297 296 292 285 284 281 275 276 274 272 272 274 278 279 284 292 294 284 259 226 208 200 190 185 182 176 172 165 156 144 141 133 122 108 100 116 115 116 119 121 130 126
292 292 291 290 289 287 282 279 277 276 278 277 275 274 274 280 295 299 294 271 234 209 198 187 179 183 178 173 177 172 158 149 141 139 132 120 118 112 110 108 117 119 114
285 282 280 283 283 280 272 271 275 277 279 277 272 272 273 270 273 283 291 286 249 214 198 187 183 181 179 179 180 176 162 150 132 138 138 128 117 106 102 110 115 114 111
279 277 277 278 279 275 270 266 271 274 273 272 272 271 271 272 269 271 275 278 263 224 203 188 184 177 176 175 169 167 156 139 124 123 119 111 104 97 98 98 96 100 110
278 274 273 274 275 274 269 268 269 268 268 269 269 269 267 266 268 268 266 267 261 237 213 195 184 177 181 185 171 164 162 158 148 135 121 118 120 116 111 104 101 105 112
281 279 276 275 275 272 268 266 263 260 260 264 265 265 266 266 266 271 279 264 261 249 226 207 187 184 180 168 168 166 160 151 147 139 145 148 151 151 148 141 130 127 129